Weather History for KGBG - November, 2014

Change the Weather History Date:

Thursday, November 27, 2014

  Actual Average Record
Temperature  
Mean Temperature 14 °F -  
Max Temperature 25 °F 41 °F 68 °F (1989)
Min Temperature 4 °F 27 °F 4 °F (2014)
Degree Days  
Heating Degree Days 50    
Moisture  
Dew Point 14 °F    
Average Humidity 85    
Maximum Humidity 96    
Minimum Humidity 73    
Precipitation  
Precipitation 0.00 in - - ()
Sea Level Pressure  
Sea Level Pressure 30.40 in    
Wind  
Wind Speed 8 mph (WNW)    
Max Wind Speed 18 mph    
Max Gust Speed 25 mph    
Visibility 9 miles    
Events Snow    
Averages and records for this station are not official NWS values.
T = Trace of Precipitation, MM = Missing Value Source: NWS Daily Summary

Daily Weather History Graph

Daily Weather History Graph

Search for Another Location

Airport or City:

Trip Planner

Search our weather history database for the weather conditions in past years. The results will help you decide how hot, cold, wet, or windy it might be!

Date:

Astronomy

Nov. 27, 2014 Rise Set
Actual Time 7:02 AM CST 4:35 PM CST
Civil Twilight 6:32 AM CST 5:05 PM CST
Nautical Twilight 5:58 AM CST 5:39 PM CST
Astronomical Twilight 5:25 AM CST 6:12 PM CST
Moon 11:16 AM CST (11/27) 10:17 PM CST (11/27)
Length of Visible Light 10h 33m
Length of Day
9h 32m
Waxing Crescent, 31% of the Moon is Illuminated
Nov 27
Waxing Crescent
Nov 29
First Quarter
Dec 6
Full
Dec 14
Last Quarter
Dec 21
New

Hourly Weather History & Observations

Time (CST) Temp. Windchill Dew Point Humidity Pressure Visibility Wind Dir Wind Speed Gust Speed Precip Events Conditions
12:15 AM 20.1 °F 13.6 °F 18.3 °F 93% 30.26 in 7.0 mi NW 4.6 mph - N/A   Clear
12:35 AM 18.3 °F 11.5 °F 16.7 °F 93% 30.27 in 5.0 mi WNW 4.6 mph - N/A   Scattered Clouds
12:55 AM 21.0 °F 13.4 °F 19.2 °F 93% 30.28 in 7.0 mi WNW 5.8 mph - N/A   Overcast
1:15 AM 22.1 °F 14.7 °F 20.1 °F 92% 30.29 in 7.0 mi WNW 5.8 mph - N/A   Overcast
1:35 AM 22.1 °F 13.7 °F 20.3 °F 93% 30.30 in 7.0 mi NW 6.9 mph - N/A   Overcast
1:55 AM 22.8 °F 14.5 °F 20.8 °F 92% 30.30 in 7.0 mi NW 6.9 mph - N/A   Overcast
2:15 AM 23.5 °F 15.4 °F 21.2 °F 91% 30.31 in 7.0 mi NW 6.9 mph - N/A   Overcast
2:35 AM 22.6 °F 14.3 °F 20.3 °F 91% 30.32 in 7.0 mi NW 6.9 mph - N/A   Mostly Cloudy
2:55 AM 21.9 °F 14.5 °F 20.1 °F 93% 30.33 in 5.0 mi WNW 5.8 mph - N/A   Mostly Cloudy
3:15 AM 20.8 °F 14.4 °F 19.2 °F 93% 30.33 in 5.0 mi WNW 4.6 mph - N/A   Mostly Cloudy
3:35 AM 20.3 °F 12.5 °F 19.4 °F 96% 30.33 in 5.0 mi West 5.8 mph - N/A   Mostly Cloudy
3:55 AM 22.6 °F 14.3 °F 21.6 °F 96% 30.34 in 5.0 mi WNW 6.9 mph - N/A   Overcast
4:15 AM 24.1 °F 15.2 °F 22.8 °F 95% 30.34 in 5.0 mi West 8.1 mph - N/A   Overcast
4:35 AM 25.3 °F 15.3 °F 23.0 °F 91% 30.35 in 7.0 mi WNW 10.4 mph - N/A   Overcast
4:55 AM 25.5 °F 14.3 °F 22.6 °F 89% 30.35 in 10.0 mi NW 12.7 mph 17.3 mph N/A   Overcast
5:15 AM 25.3 °F 15.3 °F 21.6 °F 86% 30.35 in 10.0 mi NW 10.4 mph - N/A   Overcast
5:35 AM 25.3 °F 17.6 °F 21.7 °F 86% 30.36 in 10.0 mi NW 6.9 mph - N/A   Overcast
5:55 AM 25.2 °F 16.5 °F 21.7 °F 87% 30.36 in 10.0 mi WNW 8.1 mph - N/A   Overcast
6:15 AM 25.2 °F 17.3 °F 21.9 °F 87% 30.36 in 10.0 mi WNW 6.9 mph - N/A   Overcast
6:35 AM 25.2 °F 18.3 °F 22.3 °F 89% 30.37 in 10.0 mi WNW 5.8 mph - N/A   Overcast
6:55 AM 25.2 °F 16.5 °F 22.6 °F 90% 30.37 in 10.0 mi West 8.1 mph - N/A   Overcast
7:15 AM 25.5 °F 13.8 °F 21.9 °F 86% 30.38 in 7.0 mi WNW 13.8 mph 20.7 mph N/A   Overcast
7:35 AM 25.3 °F 14.7 °F 22.3 °F 88% 30.39 in 7.0 mi West 11.5 mph - N/A   Overcast
7:55 AM 23.7 °F 9.7 °F 21.0 °F 89% 30.40 in 5.0 mi WNW 18.4 mph 24.2 mph N/A Snow Light Snow
8:15 AM 23.0 °F 10.6 °F 20.7 °F 91% 30.41 in 3.0 mi West 13.8 mph - N/A Snow Light Snow
8:35 AM 22.1 °F 8.5 °F 19.8 °F 91% 30.41 in 2.5 mi WNW 16.1 mph - N/A Snow Light Snow
8:55 AM 21.2 °F 6.8 °F 18.5 °F 89% 30.42 in 2.0 mi WNW 17.3 mph 20.7 mph N/A Snow Light Snow
9:15 AM 21.0 °F 8.1 °F 18.0 °F 88% 30.42 in 3.0 mi WNW 13.8 mph 25.3 mph N/A Snow Light Snow
9:35 AM 20.8 °F 7.9 °F 18.0 °F 89% 30.43 in 3.0 mi West 13.8 mph - N/A Snow Light Snow
9:55 AM 20.7 °F 6.1 °F 17.1 °F 86% 30.44 in 10.0 mi West 17.3 mph 20.7 mph N/A Snow Light Snow
10:15 AM 20.7 °F 7.1 °F 16.5 °F 84% 30.44 in 10.0 mi WNW 15.0 mph - N/A   Mostly Cloudy
10:35 AM 21.2 °F 8.3 °F 17.1 °F 84% 30.44 in 10.0 mi WNW 13.8 mph - N/A   Mostly Cloudy
10:55 AM 21.2 °F 7.8 °F 16.7 °F 83% 30.44 in 10.0 mi WNW 15.0 mph 21.9 mph N/A   Scattered Clouds
11:15 AM 21.2 °F 8.3 °F 16.5 °F 82% 30.44 in 10.0 mi WNW 13.8 mph 17.3 mph N/A   Scattered Clouds
11:35 AM 21.4 °F 8.5 °F 16.3 °F 81% 30.43 in 10.0 mi WNW 13.8 mph - N/A   Scattered Clouds
11:55 AM 21.7 °F 9.6 °F 16.3 °F 80% 30.43 in 10.0 mi West 12.7 mph - N/A   Scattered Clouds
12:15 PM 21.0 °F 7.6 °F 16.0 °F 81% 30.43 in 10.0 mi West 15.0 mph - N/A   Scattered Clouds
12:35 PM 21.0 °F 8.1 °F 15.4 °F 79% 30.43 in 10.0 mi West 13.8 mph - N/A   Scattered Clouds
12:55 PM 20.3 °F 8.3 °F 14.2 °F 77% 30.43 in 10.0 mi WNW 11.5 mph - N/A   Scattered Clouds
1:15 PM 20.3 °F 6.6 °F 12.7 °F 73% 30.43 in 10.0 mi WNW 15.0 mph - N/A   Clear
1:35 PM 19.8 °F 5.9 °F 12.7 °F 74% 30.43 in 10.0 mi West 15.0 mph - N/A   Scattered Clouds
1:55 PM 19.0 °F 5.6 °F 12.6 °F 76% 30.44 in 10.0 mi West 13.8 mph 19.6 mph N/A   Clear
2:15 PM 18.5 °F 6.1 °F 11.7 °F 75% 30.44 in 10.0 mi West 11.5 mph - N/A   Clear
2:35 PM 17.6 °F 5.7 °F 10.8 °F 75% 30.44 in 10.0 mi West 10.4 mph - N/A   Clear
2:55 PM 16.9 °F 4.8 °F 10.9 °F 77% 30.44 in 10.0 mi West 10.4 mph - N/A   Clear
3:15 PM 16.3 °F 4.9 °F 10.4 °F 77% 30.44 in 10.0 mi West 9.2 mph - N/A   Clear
3:35 PM 15.6 °F 4.0 °F 10.0 °F 79% 30.45 in 10.0 mi West 9.2 mph - N/A   Clear
3:55 PM 14.9 °F 3.1 °F 9.7 °F 80% 30.45 in 10.0 mi West 9.2 mph - N/A   Clear
4:15 PM 14.0 °F 2.0 °F 8.6 °F 79% 30.45 in 10.0 mi West 9.2 mph - N/A   Clear
4:35 PM 12.6 °F 2.2 °F 7.5 °F 80% 30.45 in 10.0 mi West 6.9 mph - N/A   Clear
4:55 PM 10.9 °F 0.2 °F 6.3 °F 81% 30.45 in 10.0 mi West 6.9 mph - N/A   Clear
5:15 PM 10.0 °F 1.8 °F 5.7 °F 83% 30.46 in 10.0 mi West 4.6 mph - N/A   Clear
5:35 PM 9.3 °F -0.5 °F 5.4 °F 84% 30.46 in 10.0 mi West 5.8 mph - N/A   Clear
5:55 PM 9.3 °F 2.8 °F 5.5 °F 85% 30.46 in 10.0 mi West 3.5 mph - N/A   Clear
6:15 PM 8.6 °F -1.3 °F 4.8 °F 85% 30.46 in 10.0 mi West 5.8 mph - N/A   Clear
6:35 PM 8.2 °F - 4.1 °F 83% 30.45 in 10.0 mi Calm Calm - N/A   Clear
6:55 PM 8.2 °F 1.6 °F 3.9 °F 83% 30.43 in 10.0 mi WNW 3.5 mph - N/A   Clear
7:15 PM 7.3 °F - 3.7 °F 85% 30.42 in 10.0 mi Calm Calm - N/A   Clear
7:35 PM 5.9 °F -1.1 °F 2.7 °F 87% 30.42 in 10.0 mi WNW 3.5 mph - N/A   Clear
7:55 PM 5.0 °F - 2.3 °F 89% 30.41 in 10.0 mi Calm Calm - N/A   Clear
8:15 PM 4.8 °F - 2.5 °F 90% 30.41 in 10.0 mi Calm Calm - N/A   Clear
8:35 PM 5.7 °F - 3.4 °F 90% 30.42 in 10.0 mi Calm Calm - N/A   Clear
8:55 PM 7.5 °F 0.8 °F 4.8 °F 89% 30.43 in 10.0 mi SW 3.5 mph - N/A   Clear
9:15 PM 8.6 °F - 5.5 °F 87% 30.41 in 10.0 mi Calm Calm - N/A   Clear
9:35 PM 10.0 °F -0.9 °F 6.3 °F 85% 30.43 in 10.0 mi WSW 6.9 mph - N/A   Clear
9:55 PM 9.9 °F 1.6 °F 6.1 °F 85% 30.41 in 10.0 mi SW 4.6 mph - N/A   Clear
10:15 PM 10.4 °F - 6.3 °F 83% 30.41 in 10.0 mi Calm Calm - N/A   Mostly Cloudy
10:35 PM 11.1 °F - 6.6 °F 82% 30.41 in 10.0 mi Calm Calm - N/A   Overcast
10:55 PM 11.7 °F - 7.3 °F 83% 30.41 in 10.0 mi Calm Calm - N/A   Overcast
11:15 PM 12.0 °F - 7.7 °F 83% 30.41 in 10.0 mi Calm Calm - N/A   Overcast
11:35 PM 12.0 °F - 7.5 °F 82% 30.40 in 10.0 mi Calm Calm - N/A   Overcast
11:55 PM 12.2 °F - 7.7 °F 82% 30.39 in 10.0 mi Calm Calm - N/A   Overcast